Weather History for Drummond Island, MI

Change the Weather History Date:

Monday, January 21, 2013

  Actual Average (KCIU) Record (KCIU)
Temperature  
Mean Temperature 1 °F -  
Max Temperature 10 °F 23 °F 34 °F (1993)
Min Temperature -8 °F -3 °F -27 °F (1984)
Degree Days  
Heating Degree Days 64    
Moisture  
Dew Point -1 °F    
Average Humidity 83    
Maximum Humidity 90    
Minimum Humidity 72    
Precipitation  
Precipitation 0.00 in - - ()
Sea Level Pressure  
Sea Level Pressure 29.90 in    
Wind  
Wind Speed 1 mph (NW)    
Max Wind Speed 7 mph    
Max Gust Speed -    
Visibility 7 miles    
Events Snow    
Averages and records for this station are not official NWS values.
T = Trace of Precipitation, MM = Missing Value Source: NWS Daily Summary

Daily Weather History Graph

Daily Weather History Graph

Search for Another Location

Airport:

Trip Planner

Search our weather history database for the weather conditions in past years. The results will help you decide how hot, cold, wet, or windy it might be!

Date:

Astronomy

Jan. 21, 2013 Rise Set
Actual Time 8:08 AM EST 5:24 PM EST
Civil Twilight 7:35 AM EST 5:57 PM EST
Nautical Twilight 6:58 AM EST 6:34 PM EST
Astronomical Twilight 6:23 AM EST 7:09 PM EST
Moon 1:02 PM EST (1/21) 3:36 AM EST (1/21)
Length of Visible Light 10h 22m
Length of Day
9h 16m
Waxing Gibbous, 75% of the Moon is Illuminated
Jan 21
Waxing Gibbous
Jan 26
Full
Feb 3
Last Quarter
Feb 10
New
Feb 17
First Quarter

Hourly Weather History & Observations

Time (EST) Temp. Windchill Dew Point Humidity Pressure Visibility Wind Dir Wind Speed Gust Speed Precip Events Conditions
12:15 AM -4.5 °F - -7.6 °F 87% 30.03 in 10.0 mi Calm Calm - N/A   Clear
12:35 AM -7.1 °F - -10.5 °F 85% 30.03 in 10.0 mi Calm Calm - N/A   Clear
1:15 AM -6.2 °F - -9.4 °F 86% 30.00 in 10.0 mi Calm Calm - N/A   Clear
1:35 AM -7.6 °F - -11.0 °F 85% 30.00 in 10.0 mi Calm Calm - N/A   Clear
2:36 AM -7.2 °F - -10.7 °F 85% 29.99 in 10.0 mi Calm Calm - N/A   Overcast
2:55 AM -8.3 °F - -11.9 °F 84% 29.99 in 10.0 mi Calm Calm - N/A   Overcast
3:15 AM -6.5 °F - -9.9 °F 85% 29.98 in 10.0 mi Calm Calm - N/A   Overcast
3:36 AM -6.2 °F - -9.4 °F 86% 29.97 in 10.0 mi Calm Calm - N/A   Overcast
3:55 AM -7.1 °F - -10.3 °F 86% 29.96 in 10.0 mi Calm Calm - N/A   Overcast
4:16 AM -6.9 °F - -10.5 °F 84% 29.95 in 10.0 mi Calm Calm - N/A   Overcast
4:36 AM -5.8 °F - -9.4 °F 84% 29.95 in 10.0 mi Calm Calm - N/A   Overcast
4:55 AM -3.8 °F - -6.7 °F 87% 29.94 in 10.0 mi Calm Calm - N/A   Overcast
5:55 AM -0.9 °F - -3.8 °F 88% 29.93 in 2.0 mi Calm Calm - N/A Snow Light Snow
6:16 AM -0.4 °F - -3.3 °F 88% 29.92 in 1.8 mi Calm Calm - N/A Snow Light Snow
6:35 AM 0.5 °F - -2.2 °F 88% 29.92 in 1.5 mi Calm Calm - N/A Snow Light Snow
6:55 AM 1.2 °F - -1.7 °F 88% 29.91 in 1.5 mi Calm Calm - N/A Snow Light Snow
7:16 AM 1.4 °F - -1.3 °F 88% 29.91 in 2.5 mi Calm Calm - N/A Snow Light Snow
7:35 AM 1.9 °F - -0.8 °F 88% 29.90 in 1.8 mi Calm Calm - N/A Snow Light Snow
7:55 AM 2.1 °F - -0.6 °F 88% 29.90 in 1.5 mi Calm Calm - N/A Snow Light Snow
8:16 AM 2.7 °F - -0.0 °F 88% 29.89 in 0.8 mi Calm Calm - N/A Snow Light Snow
8:35 AM 3.9 °F - 1.4 °F 89% 29.89 in 1.0 mi Calm Calm - N/A Snow Light Snow
8:56 AM 4.3 °F - 1.8 °F 89% 29.89 in 1.0 mi Calm Calm - N/A Snow Light Snow
9:15 AM 5.2 °F - 2.8 °F 90% 29.88 in 1.0 mi Calm Calm - N/A Snow Light Snow
9:35 AM 5.5 °F - 3.0 °F 89% 29.88 in 3.0 mi Calm Calm - N/A Snow Light Snow
9:55 AM 5.7 °F - 3.2 °F 89% 29.88 in 1.2 mi Calm Calm - N/A Snow Light Snow
10:15 AM 5.9 °F - 3.6 °F 90% 29.87 in 3.0 mi Calm Calm - N/A Snow Light Snow
10:35 AM 6.6 °F - 3.9 °F 89% 29.87 in 7.0 mi Calm Calm - N/A Snow Light Snow
10:56 AM 6.8 °F - 4.1 °F 89% 29.87 in 10.0 mi Calm Calm - N/A Snow Light Snow
11:15 AM 7.5 °F - 4.1 °F 86% 29.87 in 10.0 mi Calm Calm - N/A   Overcast
11:36 AM 8.8 °F - 3.6 °F 79% 29.86 in 10.0 mi Calm Calm - N/A   Overcast
11:55 AM 9.9 °F - 2.8 °F 73% 29.85 in 10.0 mi Calm Calm - N/A   Overcast
12:16 PM 9.9 °F - 2.7 °F 73% 29.83 in 10.0 mi Calm Calm - N/A   Overcast
12:36 PM 10.4 °F -0.4 °F 4.1 °F 76% 29.83 in 10.0 mi WNW 6.9 mph - N/A   Overcast
12:55 PM 10.0 °F 3.6 °F 4.6 °F 79% 29.82 in 7.0 mi NW 3.5 mph - N/A   Overcast
1:16 PM 9.7 °F 1.4 °F 4.3 °F 79% 29.81 in 10.0 mi NW 4.6 mph - N/A   Overcast
1:36 PM 10.0 °F 3.6 °F 4.1 °F 77% 29.81 in 10.0 mi NW 3.5 mph - N/A   Overcast
1:55 PM 9.9 °F 3.4 °F 4.1 °F 78% 29.80 in 5.0 mi NW 3.5 mph - N/A   Haze
2:16 PM 10.6 °F 1.0 °F 4.1 °F 75% 29.80 in 10.0 mi North 5.8 mph - N/A   Overcast
2:35 PM 9.1 °F 2.6 °F 3.9 °F 79% 29.80 in 5.0 mi North 3.5 mph - N/A   Haze
2:56 PM 6.6 °F - 2.3 °F 82% 29.81 in 10.0 mi Calm Calm - N/A   Overcast
3:16 PM 6.6 °F - 2.3 °F 82% 29.82 in 10.0 mi Calm Calm - N/A   Overcast
3:35 PM 8.2 °F 1.6 °F 2.8 °F 79% 29.82 in 10.0 mi NNW 3.5 mph - N/A   Mostly Cloudy
3:56 PM 9.0 °F 0.6 °F 2.8 °F 76% 29.83 in 10.0 mi NW 4.6 mph - N/A   Mostly Cloudy
4:16 PM 8.4 °F 1.8 °F 2.3 °F 76% 29.83 in 10.0 mi WNW 3.5 mph - N/A   Overcast
4:35 PM 8.4 °F 1.8 °F 1.8 °F 74% 29.83 in 10.0 mi WNW 3.5 mph - N/A   Overcast
4:56 PM 7.5 °F -1.1 °F 0.3 °F 72% 29.84 in 10.0 mi West 4.6 mph - N/A   Mostly Cloudy
5:15 PM 7.5 °F -1.1 °F 1.8 °F 77% 29.84 in 10.0 mi WNW 4.6 mph - N/A   Scattered Clouds
5:36 PM 7.3 °F - 2.3 °F 80% 29.85 in 10.0 mi Calm Calm - N/A   Mostly Cloudy
5:56 PM 6.6 °F -2.2 °F 2.7 °F 84% 29.85 in 5.0 mi NW 4.6 mph - N/A Snow Light Snow
6:15 PM 5.0 °F -2.1 °F 1.2 °F 84% 29.86 in 10.0 mi NNW 3.5 mph - N/A   Mostly Cloudy
6:36 PM 4.1 °F -5.1 °F -0.4 °F 82% 29.87 in 10.0 mi NW 4.6 mph - N/A   Mostly Cloudy
6:56 PM 3.7 °F -5.5 °F -0.8 °F 82% 29.88 in 10.0 mi NW 4.6 mph - N/A   Scattered Clouds
7:15 PM 3.2 °F -4.2 °F -1.7 °F 80% 29.90 in 10.0 mi NW 3.5 mph - N/A   Scattered Clouds
7:55 PM 1.2 °F - -4.0 °F 79% 29.90 in 10.0 mi Calm Calm - N/A   Overcast
8:16 PM 0.1 °F - -4.0 °F 83% 29.90 in 10.0 mi Calm Calm - N/A   Overcast
8:36 PM 0.9 °F - -4.0 °F 80% 29.91 in 10.0 mi Calm Calm - N/A   Overcast
8:55 PM 0.1 °F - -4.5 °F 81% 29.92 in 10.0 mi Calm Calm - N/A   Overcast
9:16 PM 1.9 °F -5.6 °F -3.5 °F 78% 29.93 in 10.0 mi NW 3.5 mph - N/A   Overcast
9:35 PM 2.3 °F - -2.2 °F 81% 29.93 in 2.5 mi Calm Calm - N/A Snow Light Snow
9:55 PM 2.7 °F -6.8 °F -1.3 °F 84% 29.94 in 2.0 mi NW 4.6 mph - N/A Snow Light Snow
10:16 PM 2.8 °F - -0.9 °F 84% 29.93 in 2.5 mi Calm Calm - N/A Snow Light Snow
10:35 PM 2.1 °F - -1.3 °F 86% 29.94 in 4.0 mi Calm Calm - N/A Snow Light Snow
10:55 PM 2.8 °F - -0.9 °F 84% 29.94 in 3.0 mi Calm Calm - N/A Snow Light Snow
11:16 PM 2.1 °F -7.4 °F -1.7 °F 84% 29.95 in 1.5 mi WNW 4.6 mph - N/A Snow Light Snow
11:35 PM 1.2 °F -8.5 °F -2.7 °F 83% 29.95 in 2.5 mi NW 4.6 mph - N/A Snow Light Snow
11:56 PM 1.2 °F -6.4 °F -2.6 °F 84% 29.95 in 2.0 mi NW 3.5 mph - N/A Snow Light Snow